Saratoga-Weather Station Historical Data
 
Daily Summary for September 25, 2017 Units:  English    Metric   Both
Daily Weekly Monthly Yearly Custom
  Current: High: Low: Average:
Temperature: 89.4 °F 89.4 °F 62.8 °F 75.3 °F
Dew Point: 74.2 °F 76.6 °F 62.2 °F 69.6 °F
Humidity: 61% 100% 60% 84%
Wind Speed: 0.0mph 1.0mph 0.0mph 0mph
Wind Gust: 4.0mph 4.0mph - -
WindCalm - - SW
Pressure: 30.01 in 30.10 in 30.01 in -
Precipitation: 0.00 in      
Historical Graphs
 
 
Tabular Data for September 25, 2017
Time Temperature Dew Point Pressure Wind Wind Speed Wind Gust Humidity Rainfall Rate (Hourly) solar
00:00 64.1 °F 62.9 °F 30.07 in Calm     96% 0.00 in VWS V15.00 W/m2
00:01 64.1 °F 62.9 °F 30.07 in Calm     96% 0.00 in VWS V15.00 W/m2
00:03 64.1 °F 62.9 °F 30.07 in Calm     96% 0.00 in VWS V15.00 W/m2
00:05 64.0 °F 62.8 °F 30.07 in Calm     96% 0.00 in VWS V15.00 W/m2
00:07 64.0 °F 62.8 °F 30.07 in Calm     96% 0.00 in VWS V15.00 W/m2
00:09 64.0 °F 62.8 °F 30.07 in Calm     96% 0.00 in VWS V15.00 W/m2
00:11 64.0 °F 62.8 °F 30.07 in Calm     96% 0.00 in VWS V15.00 W/m2
00:13 64.0 °F 62.8 °F 30.07 in Calm     96% 0.00 in VWS V15.00 W/m2
00:15 63.9 °F 62.7 °F 30.07 in Calm     96% 0.00 in VWS V15.00 W/m2
00:17 63.9 °F 62.7 °F 30.07 in Calm     96% 0.00 in VWS V15.00 W/m2
00:19 63.9 °F 62.7 °F 30.07 in Calm     96% 0.00 in VWS V15.00 W/m2
00:21 63.9 °F 62.7 °F 30.07 in Calm     96% 0.00 in VWS V15.00 W/m2
00:23 63.9 °F 62.7 °F 30.07 in Calm     96% 0.00 in VWS V15.00 W/m2
00:25 63.9 °F 62.7 °F 30.06 in Calm     96% 0.00 in VWS V15.00 W/m2
00:27 63.8 °F 62.6 °F 30.06 in Calm     96% 0.00 in VWS V15.00 W/m2
00:29 63.8 °F 62.6 °F 30.06 in Calm     96% 0.00 in VWS V15.00 W/m2
00:30 63.8 °F 62.6 °F 30.06 in Calm     96% 0.00 in VWS V15.00 W/m2
00:31 63.8 °F 62.6 °F 30.06 in Calm     96% 0.00 in VWS V15.00 W/m2
00:33 63.7 °F 62.5 °F 30.06 in Calm     96% 0.00 in VWS V15.00 W/m2
00:35 63.7 °F 62.5 °F 30.07 in Calm     96% 0.00 in VWS V15.00 W/m2
00:37 63.6 °F 62.4 °F 30.06 in Calm     96% 0.00 in VWS V15.00 W/m2
00:39 63.6 °F 62.4 °F 30.06 in Calm     96% 0.00 in VWS V15.00 W/m2
00:41 63.5 °F 62.3 °F 30.07 in Calm     96% 0.00 in VWS V15.00 W/m2
00:43 63.5 °F 62.3 °F 30.07 in Calm     96% 0.00 in VWS V15.00 W/m2
00:45 63.4 °F 62.2 °F 30.06 in Calm     96% 0.00 in VWS V15.00 W/m2
07:48 62.8 °F 62.2 °F 30.10 in Calm     98% 0.00 in VWS V15.00 W/m2
07:50 63.0 °F 62.7 °F 30.10 in Calm     99% 0.00 in VWS V15.00 W/m2
07:52 63.3 °F 63.0 °F 30.10 in Calm     99% 0.00 in VWS V15.00 W/m2
07:54 63.6 °F 63.6 °F 30.10 in Calm     100% 0.00 in VWS V15.00 W/m2
07:56 63.8 °F 63.5 °F 30.10 in Calm     99% 0.00 in VWS V15.00 W/m2
07:58 64.1 °F 63.8 °F 30.10 in Calm     99% 0.00 in VWS V15.00 W/m2
08:00 64.4 °F 64.1 °F 30.10 in Calm     99% 0.00 in VWS V15.00 W/m2
08:02 64.8 °F 64.5 °F 30.10 in Calm     99% 0.00 in VWS V15.00 W/m2
08:04 65.1 °F 64.8 °F 30.10 in Calm     99% 0.00 in VWS V15.00 W/m2
08:06 65.3 °F 65.0 °F 30.10 in Calm     99% 0.00 in VWS V15.00 W/m2
08:08 65.5 °F 65.2 °F 30.10 in Calm     99% 0.00 in VWS V15.00 W/m2
08:10 65.7 °F 65.4 °F 30.10 in Calm     99% 0.00 in VWS V15.00 W/m2
08:14 66.1 °F 65.8 °F 30.10 in Calm     99% 0.00 in VWS V15.00 W/m2
08:16 66.3 °F 66.0 °F 30.10 in Calm     99% 0.00 in VWS V15.00 W/m2
08:18 66.5 °F 66.2 °F 30.10 in Calm     99% 0.00 in VWS V15.00 W/m2
08:20 66.6 °F 66.3 °F 30.10 in Calm     99% 0.00 in VWS V15.00 W/m2
08:22 66.7 °F 66.4 °F 30.10 in Calm     99% 0.00 in VWS V15.00 W/m2
08:24 66.8 °F 66.5 °F 30.10 in Calm     99% 0.00 in VWS V15.00 W/m2
08:26 66.9 °F 66.6 °F 30.10 in Calm     99% 0.00 in VWS V15.00 W/m2
08:28 67.1 °F 66.8 °F 30.10 in Calm     99% 0.00 in VWS V15.00 W/m2
08:30 67.2 °F 66.9 °F 30.10 in Calm   1.0 mph 99% 0.00 in VWS V15.00 W/m2
08:32 67.4 °F 67.1 °F 30.10 in Calm     99% 0.00 in VWS V15.00 W/m2
08:34 67.5 °F 67.2 °F 30.10 in Calm     99% 0.00 in VWS V15.00 W/m2
08:36 67.6 °F 67.3 °F 30.10 in Calm     99% 0.00 in VWS V15.00 W/m2
08:38 67.7 °F 67.4 °F 30.10 in Calm     99% 0.00 in VWS V15.00 W/m2
08:40 67.9 °F 67.6 °F 30.10 in Calm     99% 0.00 in VWS V15.00 W/m2
08:42 67.9 °F 67.6 °F 30.10 in Calm     99% 0.00 in VWS V15.00 W/m2
08:44 68.0 °F 67.7 °F 30.10 in Calm     99% 0.00 in VWS V15.00 W/m2
08:46 68.1 °F 67.8 °F 30.10 in Calm     99% 0.00 in VWS V15.00 W/m2
08:48 68.2 °F 67.9 °F 30.10 in Calm     99% 0.00 in VWS V15.00 W/m2
08:50 68.3 °F 68.0 °F 30.10 in Calm     99% 0.00 in VWS V15.00 W/m2
08:52 68.4 °F 68.1 °F 30.10 in Calm     99% 0.00 in VWS V15.00 W/m2
08:54 68.5 °F 68.2 °F 30.10 in Calm     99% 0.00 in VWS V15.00 W/m2
08:56 68.7 °F 68.4 °F 30.10 in Calm   1.0 mph 99% 0.00 in VWS V15.00 W/m2
08:58 68.8 °F 68.5 °F 30.10 in Calm   1.0 mph 99% 0.00 in VWS V15.00 W/m2
09:00 69.0 °F 68.7 °F 30.10 in Calm   1.0 mph 99% 0.00 in VWS V15.00 W/m2
09:02 69.3 °F 69.0 °F 30.10 in Calm     99% 0.00 in VWS V15.00 W/m2
09:04 69.5 °F 69.2 °F 30.10 in Calm     99% 0.00 in VWS V15.00 W/m2
09:06 69.7 °F 69.4 °F 30.10 in Calm     99% 0.00 in VWS V15.00 W/m2
09:08 70.0 °F 69.7 °F 30.10 in Calm     99% 0.00 in VWS V15.00 W/m2
09:10 70.1 °F 69.5 °F 30.09 in Calm     98% 0.00 in VWS V15.00 W/m2
09:12 70.3 °F 69.7 °F 30.09 in Calm     98% 0.00 in VWS V15.00 W/m2
09:14 70.5 °F 69.6 °F 30.09 in Calm   1.0 mph 97% 0.00 in VWS V15.00 W/m2
09:16 70.7 °F 69.5 °F 30.09 in Calm   1.0 mph 96% 0.00 in VWS V15.00 W/m2
09:19 71.0 °F 69.5 °F 30.09 in Calm   2.0 mph 95% 0.00 in VWS V15.00 W/m2
09:20 71.3 °F 69.8 °F 30.09 in Calm   2.0 mph 95% 0.00 in VWS V15.00 W/m2
09:22 71.6 °F 70.1 °F 30.09 in Calm   2.0 mph 95% 0.00 in VWS V15.00 W/m2
09:24 71.8 °F 70.0 °F 30.09 in Calm   2.0 mph 94% 0.00 in VWS V15.00 W/m2
09:26 71.9 °F 69.1 °F 30.09 in Calm   2.0 mph 91% 0.00 in VWS V15.00 W/m2
09:28 72.1 °F 69.3 °F 30.09 in Calm   2.0 mph 91% 0.00 in VWS V15.00 W/m2
09:30 72.3 °F 69.2 °F 30.08 in Calm   2.0 mph 90% 0.00 in VWS V15.00 W/m2
09:33 72.6 °F 69.5 °F 30.08 in Calm     90% 0.00 in VWS V15.00 W/m2
09:35 72.8 °F 69.4 °F 30.08 in Calm   1.0 mph 89% 0.00 in VWS V15.00 W/m2
09:37 73.1 °F 70.0 °F 30.08 in Calm   1.0 mph 90% 0.00 in VWS V15.00 W/m2
09:39 73.3 °F 70.5 °F 30.08 in Calm   1.0 mph 91% 0.00 in VWS V15.00 W/m2
09:41 73.5 °F 70.1 °F 30.08 in Calm   1.0 mph 89% 0.00 in VWS V15.00 W/m2
09:43 73.6 °F 69.8 °F 30.08 in Calm   1.0 mph 88% 0.00 in VWS V15.00 W/m2
09:45 73.8 °F 70.0 °F 30.08 in Calm   1.0 mph 88% 0.00 in VWS V15.00 W/m2
09:47 74.0 °F 69.9 °F 30.08 in Calm   1.0 mph 87% 0.00 in VWS V15.00 W/m2
09:49 74.2 °F 70.8 °F 30.08 in Calm   1.0 mph 89% 0.00 in VWS V15.00 W/m2
09:51 74.3 °F 70.2 °F 30.08 in Calm   1.0 mph 87% 0.00 in VWS V15.00 W/m2
09:53 74.6 °F 70.8 °F 30.08 in Calm   1.0 mph 88% 0.00 in VWS V15.00 W/m2
09:55 74.9 °F 71.1 °F 30.08 in Calm   1.0 mph 88% 0.00 in VWS V15.00 W/m2
10:00 75.2 °F 70.0 °F 30.08 in Calm   1.0 mph 84% 0.00 in VWS V15.00 W/m2
10:01 75.3 °F 70.1 °F 30.08 in NW 1.0 mph 1.0 mph 84% 0.00 in VWS V15.00 W/m2
10:03 75.5 °F 70.7 °F 30.08 in Calm   1.0 mph 85% 0.00 in VWS V15.00 W/m2
10:05 75.6 °F 70.4 °F 30.08 in Calm   1.0 mph 84% 0.00 in VWS V15.00 W/m2
10:07 75.8 °F 70.3 °F 30.08 in Calm   1.0 mph 83% 0.00 in VWS V15.00 W/m2
10:09 76.0 °F 70.1 °F 30.08 in Calm   1.0 mph 82% 0.00 in VWS V15.00 W/m2
10:11 76.1 °F 69.8 °F 30.08 in Calm   1.0 mph 81% 0.00 in VWS V15.00 W/m2
10:13 76.3 °F 70.4 °F 30.07 in Calm   1.0 mph 82% 0.00 in VWS V15.00 W/m2
10:15 76.4 °F 71.2 °F 30.07 in NW 1.0 mph 1.0 mph 84% 0.00 in VWS V15.00 W/m2
10:17 76.5 °F 70.6 °F 30.07 in Calm   1.0 mph 82% 0.00 in VWS V15.00 W/m2
10:19 76.6 °F 71.4 °F 30.07 in Calm   1.0 mph 84% 0.00 in VWS V15.00 W/m2
10:21 76.7 °F 70.8 °F 30.07 in Calm   1.0 mph 82% 0.00 in VWS V15.00 W/m2
10:23 76.7 °F 71.2 °F 30.07 in Calm   1.0 mph 83% 0.00 in VWS V15.00 W/m2
10:25 76.7 °F 71.5 °F 30.07 in Calm   1.0 mph 84% 0.00 in VWS V15.00 W/m2
10:29 76.8 °F 71.2 °F 30.07 in Calm   1.0 mph 83% 0.00 in VWS V15.00 W/m2
10:30 76.8 °F 70.9 °F 30.07 in Calm   1.0 mph 82% 0.00 in VWS V15.00 W/m2
10:31 76.9 °F 71.0 °F 30.07 in Calm     82% 0.00 in VWS V15.00 W/m2
10:33 77.2 °F 70.6 °F 30.07 in Calm     80% 0.00 in VWS V15.00 W/m2
10:35 77.3 °F 71.0 °F 30.07 in Calm     81% 0.00 in VWS V15.00 W/m2
10:37 77.5 °F 71.9 °F 30.07 in Calm     83% 0.00 in VWS V15.00 W/m2
10:39 77.7 °F 71.4 °F 30.07 in Calm   1.0 mph 81% 0.00 in VWS V15.00 W/m2
10:43 77.9 °F 70.9 °F 30.07 in NE 1.0 mph 2.0 mph 79% 0.00 in VWS V15.00 W/m2
10:45 78.2 °F 71.2 °F 30.06 in Calm   2.0 mph 79% 0.00 in VWS V15.00 W/m2
10:47 78.3 °F 71.3 °F 30.06 in Calm   2.0 mph 79% 0.00 in VWS V15.00 W/m2
10:51 78.6 °F 71.6 °F 30.06 in Calm   2.0 mph 79% 0.00 in VWS V15.00 W/m2
10:53 78.7 °F 71.6 °F 30.06 in Calm   2.0 mph 79% 0.00 in VWS V15.00 W/m2
10:55 78.9 °F 71.8 °F 30.06 in Calm   2.0 mph 79% 0.00 in VWS V15.00 W/m2
10:57 79.1 °F 71.3 °F 30.06 in Calm   2.0 mph 77% 0.00 in VWS V15.00 W/m2
10:59 79.2 °F 71.4 °F 30.06 in Calm   2.0 mph 77% 0.00 in VWS V15.00 W/m2
11:00 79.3 °F 71.1 °F 30.06 in Calm   2.0 mph 76% 0.00 in VWS V15.00 W/m2
11:01 79.3 °F 71.5 °F 30.06 in Calm     77% 0.00 in VWS V15.00 W/m2
11:03 79.5 °F 72.0 °F 30.06 in Calm     78% 0.00 in VWS V15.00 W/m2
11:05 79.5 °F 70.9 °F 30.06 in Calm   1.0 mph 75% 0.00 in VWS V15.00 W/m2
11:07 79.6 °F 71.0 °F 30.05 in Calm   1.0 mph 75% 0.00 in VWS V15.00 W/m2
11:09 79.7 °F 71.1 °F 30.05 in Calm   1.0 mph 75% 0.00 in VWS V15.00 W/m2
11:11 79.8 °F 71.9 °F 30.05 in Calm   1.0 mph 77% 0.00 in VWS V15.00 W/m2
11:13 79.9 °F 71.3 °F 30.05 in Calm   1.0 mph 75% 0.00 in VWS V15.00 W/m2
11:15 80.0 °F 71.4 °F 30.05 in Calm   1.0 mph 75% 0.00 in VWS V15.00 W/m2
11:17 80.1 °F 71.5 °F 30.05 in Calm   1.0 mph 75% 0.00 in VWS V15.00 W/m2
11:19 80.3 °F 71.7 °F 30.05 in Calm   1.0 mph 75% 0.00 in VWS V15.00 W/m2
11:21 80.4 °F 71.4 °F 30.05 in Calm   1.0 mph 74% 0.00 in VWS V15.00 W/m2
11:23 80.6 °F 71.6 °F 30.05 in Calm   1.0 mph 74% 0.00 in VWS V15.00 W/m2
11:25 80.8 °F 71.7 °F 30.05 in Calm   1.0 mph 74% 0.00 in VWS V15.00 W/m2
11:27 81.0 °F 71.5 °F 30.05 in Calm   1.0 mph 73% 0.00 in VWS V15.00 W/m2
11:29 81.2 °F 71.7 °F 30.05 in Calm   1.0 mph 73% 0.00 in VWS V15.00 W/m2
11:30 81.2 °F 71.3 °F 30.05 in Calm   1.0 mph 72% 0.00 in VWS V15.00 W/m2
11:31 81.4 °F 71.9 °F 30.05 in Calm     73% 0.00 in VWS V15.00 W/m2
11:33 81.5 °F 73.2 °F 30.05 in Calm     76% 0.00 in VWS V15.00 W/m2
11:35 81.6 °F 74.1 °F 30.05 in Calm     78% 0.00 in VWS V15.00 W/m2
11:37 81.7 °F 73.4 °F 30.05 in Calm     76% 0.00 in VWS V15.00 W/m2
11:39 81.6 °F 71.7 °F 30.05 in Calm     72% 0.00 in VWS V15.00 W/m2
11:41 81.8 °F 72.3 °F 30.05 in Calm     73% 0.00 in VWS V15.00 W/m2
11:43 81.9 °F 71.6 °F 30.05 in Calm     71% 0.00 in VWS V15.00 W/m2
11:45 82.1 °F 71.8 °F 30.05 in Calm   1.0 mph 71% 0.00 in VWS V15.00 W/m2
11:47 82.3 °F 73.6 °F 30.05 in Calm   1.0 mph 75% 0.00 in VWS V15.00 W/m2
11:49 82.4 °F 74.5 °F 30.05 in Calm   1.0 mph 77% 0.00 in VWS V15.00 W/m2
11:51 82.5 °F 74.6 °F 30.04 in Calm   1.0 mph 77% 0.00 in VWS V15.00 W/m2
11:53 82.5 °F 73.8 °F 30.04 in Calm   1.0 mph 75% 0.00 in VWS V15.00 W/m2
11:55 82.6 °F 74.7 °F 30.04 in Calm   1.0 mph 77% 0.00 in VWS V15.00 W/m2
11:57 82.7 °F 72.3 °F 30.04 in Calm   1.0 mph 71% 0.00 in VWS V15.00 W/m2
11:59 82.8 °F 72.0 °F 30.04 in Calm   2.0 mph 70% 0.00 in VWS V15.00 W/m2
12:00 82.8 °F 72.0 °F 30.04 in West 1.0 mph 2.0 mph 70% 0.00 in VWS V15.00 W/m2
12:01 83.0 °F 72.6 °F 30.04 in Calm   1.0 mph 71% 0.00 in VWS V15.00 W/m2
12:03 83.2 °F 72.8 °F 30.04 in Calm   2.0 mph 71% 0.00 in VWS V15.00 W/m2
12:05 83.4 °F 74.2 °F 30.04 in Calm   2.0 mph 74% 0.00 in VWS V15.00 W/m2
12:07 83.5 °F 73.1 °F 30.04 in Calm   2.0 mph 71% 0.00 in VWS V15.00 W/m2
12:09 83.6 °F 72.8 °F 30.04 in Calm   2.0 mph 70% 0.00 in VWS V15.00 W/m2
12:11 83.8 °F 72.6 °F 30.03 in East 1.0 mph 2.0 mph 69% 0.00 in VWS V15.00 W/m2
12:13 84.0 °F 72.7 °F 30.03 in Calm   2.0 mph 69% 0.00 in VWS V15.00 W/m2
12:15 84.2 °F 73.4 °F 30.03 in Calm   2.0 mph 70% 0.00 in VWS V15.00 W/m2
12:17 84.4 °F 72.2 °F 30.03 in Calm   2.0 mph 67% 0.00 in VWS V15.00 W/m2
12:19 84.7 °F 73.0 °F 30.03 in Calm   2.0 mph 68% 0.00 in VWS V15.00 W/m2
12:21 84.9 °F 73.2 °F 30.03 in Calm   2.0 mph 68% 0.00 in VWS V15.00 W/m2
12:23 85.2 °F 74.7 °F 30.03 in Calm   2.0 mph 71% 0.00 in VWS V15.00 W/m2
12:25 85.5 °F 75.9 °F 30.03 in Calm   2.0 mph 73% 0.00 in VWS V15.00 W/m2
12:27 85.7 °F 76.1 °F 30.03 in Calm   2.0 mph 73% 0.00 in VWS V15.00 W/m2
12:29 85.8 °F 74.5 °F 30.03 in Calm   2.0 mph 69% 0.00 in VWS V15.00 W/m2
12:30 85.7 °F 74.4 °F 30.03 in Calm   2.0 mph 69% 0.00 in VWS V15.00 W/m2
12:31 85.8 °F 74.5 °F 30.03 in Calm     69% 0.00 in VWS V15.00 W/m2
12:35 86.1 °F 74.3 °F 30.03 in Calm     68% 0.00 in VWS V15.00 W/m2
12:37 86.3 °F 74.1 °F 30.03 in Calm     67% 0.00 in VWS V15.00 W/m2
12:39 86.4 °F 73.7 °F 30.03 in Calm     66% 0.00 in VWS V15.00 W/m2
12:41 86.7 °F 74.4 °F 30.02 in Calm     67% 0.00 in VWS V15.00 W/m2
12:43 86.8 °F 73.6 °F 30.02 in Calm     65% 0.00 in VWS V15.00 W/m2
12:45 87.0 °F 72.4 °F 30.02 in Calm   1.0 mph 62% 0.00 in VWS V15.00 W/m2
12:47 87.2 °F 72.6 °F 30.02 in Calm   1.0 mph 62% 0.00 in VWS V15.00 W/m2
12:49 87.3 °F 73.2 °F 30.02 in Calm   1.0 mph 63% 0.00 in VWS V15.00 W/m2
12:52 87.5 °F 72.9 °F 30.02 in Calm   3.0 mph 62% 0.00 in VWS V15.00 W/m2
12:54 87.7 °F 74.5 °F 30.02 in Calm   3.0 mph 65% 0.00 in VWS V15.00 W/m2
12:56 87.8 °F 72.7 °F 30.02 in Calm   3.0 mph 61% 0.00 in VWS V15.00 W/m2
12:58 87.8 °F 73.6 °F 30.02 in Calm   3.0 mph 63% 0.00 in VWS V15.00 W/m2
13:00 88.1 °F 73.9 °F 30.02 in Calm   3.0 mph 63% 0.00 in VWS V15.00 W/m2
13:02 88.2 °F 73.1 °F 30.01 in Calm     61% 0.00 in VWS V15.00 W/m2
13:04 88.3 °F 75.1 °F 30.01 in Calm     65% 0.00 in VWS V15.00 W/m2
13:06 88.5 °F 76.6 °F 30.01 in Calm     68% 0.00 in VWS V15.00 W/m2
13:08 88.7 °F 75.9 °F 30.01 in Calm     66% 0.00 in VWS V15.00 W/m2
13:10 88.7 °F 75.0 °F 30.01 in Calm   1.0 mph 64% 0.00 in VWS V15.00 W/m2
13:12 88.8 °F 73.1 °F 30.01 in West 1.0 mph 1.0 mph 60% 0.00 in VWS V15.00 W/m2
13:14 88.9 °F 73.7 °F 30.01 in Calm   4.0 mph 61% 0.00 in VWS V15.00 W/m2
13:18 89.1 °F 73.4 °F 30.01 in Calm   4.0 mph 60% 0.00 in VWS V15.00 W/m2
13:20 89.2 °F 75.0 °F 30.01 in Calm   4.0 mph 63% 0.00 in VWS V15.00 W/m2
13:22 89.4 °F 74.2 °F 30.01 in Calm   4.0 mph 61% 0.00 in VWS V15.00 W/m2
Liberty Hills, Hanover Township, Pennsylvania, USA
Compliments of Weather Underground - 5.25 mb